Regional Weather Roundup
Issued by NWS

Home | Current Version | Previous Version | Text Only | Print | Product List | Glossary Off
Versions: 1 2 3 4 5 6 7 8 9 10 11 12 13 14 15 16 17 18 19 20 21 22 23 24 25 26 27 28 29 30 31 32 33 34 35 36 37 38 39 40 41 42 43 44 45 46 47 48 49 50

000
ASUS43 KDMX 191107
RWRIA

WEATHER ROUNDUP FOR IOWA
NATIONAL WEATHER SERVICE DES MOINES IA
500 AM CST FRI DEC 19 2014

NOTE: "FAIR" INDICATES FEW OR NO CLOUDS BELOW 12,000 FEET WITH NO
SIGNIFICANT WEATHER AND/OR OBSTRUCTIONS TO VISIBILITY.

* - THESE STATIONS ARE NOT NWS STATIONS...THUS NOT UNDER NWS
QUALITY CONTROL.  THEY ALSO DO NOT REPORT WEATHER SUCH
AS PRECIPITATION OR FOG.

IAZ001>003-012>014-020>022-031>034-043>046-191200-
   NORTHWEST IOWA

CITY           SKY/WX    TMP DP  RH WIND       PRES   REMARKS
CARROLL *      CLOUDY    30  28  93 S6        30.22S FOG     WCI  24
CHEROKEE *     CLOUDY    30  28  93 S5        30.19F WCI  25
DENISON *      CLOUDY    30  30 100 S5        30.19F FOG     WCI  25
LE MARS *      CLOUDY    30  28  93 S9        30.19S FOG     WCI  22
ORANGE CITY *  CLOUDY    28  27  93 S6        30.17S FOG     WCI  22
SHELDON *      CLOUDY    28  28 100 S8        30.16S FOG     WCI  20
SIOUX CITY     CLOUDY    31  28  89 S7        30.20S FOG     WCI  24
SPENCER        CLOUDY    29  26  89 S6        30.19F FOG     WCI  23
STORM LAKE *   CLOUDY    28  28 100 S7        30.20S FOG     WCI  21
$$

IAZ055>058-069>071-079>083-090>094-191200-
   SOUTHWEST IOWA

CITY           SKY/WX    TMP DP  RH WIND       PRES   REMARKS
ATLANTIC *     CLOUDY    30  28  93 S7        30.22F WCI  23
AUDUBON *      CLOUDY    28  25  86 S7        30.22F HAZE    WCI  21
CLARINDA *     CLOUDY    30  30 100 S6        30.26S FOG     WCI  24
COUNCIL BLFS * CLOUDY    30  30 100 S6        30.20F FOG     WCI  24
CRESTON *      MIX PCPN  28  28 100 CALM      30.23F
HARLAN  *      CLOUDY    30  30 100 S7        30.25F FOG     WCI  23
LAMONI         CLOUDY    28  26  92 CALM      30.24S
RED OAK *      CLOUDY    30  30 100 S6        30.24S FOG     WCI  24
SHENANDOAH *   CLOUDY    30  30 100 CALM      30.24F FOG
$$

IAZ047>049-059>061-072>074-084-191200-
   CENTRAL IOWA

CITY           SKY/WX    TMP DP  RH WIND       PRES   REMARKS
AMES           CLOUDY    26  22  84 SE3       30.25F
ANKENY *       CLOUDY    28  25  86 CALM      30.26S
CHARITON *     CLOUDY    28  27  93 CALM      30.25F
DES MOINES     CLOUDY    28  24  85 S3        30.26S
GRINNELL*      CLOUDY    27  23  86 CALM      30.26R
KNOXVILLE *    CLOUDY    27  25  93 CALM      30.25S
MARSHALLTOWN   CLOUDY    24  21  88 SE3       30.25S
PELLA *        CLOUDY    27  25  93 CALM      30.27F
PERRY *        LGT SNOW  28  28 100 SE5       30.24S WCI  23
$$

IAZ004>006-015-016-023>025-035-036-191200-
   NORTH CENTRAL IOWA

CITY           SKY/WX    TMP DP  RH WIND       PRES   REMARKS
ALGONA *       CLOUDY    27  25  93 S7        30.22F WCI  19
CLARION *      CLOUDY    27  27 100 S7        30.23F WCI  19
ESTHERVILLE    CLOUDY    26  24  92 S10       30.19F WCI  16
FORT DODGE *   CLOUDY    27  23  86 S5        30.23F WCI  21
MASON CITY     CLOUDY    24  21  88 S5        30.25F WCI  18
FOREST CITY *  CLOUDY    27  21  80 S3        30.23S
IOWA FALLS *   CLOUDY    25  23  93 SE3       30.25F
$$

IAZ007>011-017>019-026>030-037>042-050>054-066-191200-
   NORTHEAST IOWA

CITY           SKY/WX    TMP DP  RH WIND       PRES   REMARKS
CEDAR RAPIDS   CLOUDY    24  20  84 N3        30.26F
CHARLES CITY * CLOUDY    23  21  93 SE5       30.26S WCI  17
CLINTON *      CLEAR     16  10  79 NE3       30.30F
DECORAH *      CLOUDY    23  19  86 CALM      30.24F
DUBUQUE        CLOUDY    23  19  85 CALM      30.27S
MONTICELLO *   CLOUDY    19  19 100 CALM      30.28F
OELWEIN *      CLOUDY    23  19  86 CALM      30.27S
WATERLOO       CLOUDY    24  19  81 SE3       30.27F
$$

IAZ064-065-067-068-078-191200-
   EAST CENTRAL IOWA

CITY           SKY/WX    TMP DP  RH WIND       PRES   REMARKS
DAVENPORT      CLEAR     15  10  80 NE3       30.29F
IOWA CITY      CLOUDY    25  20  81 NE3       30.29F
MT. PLEASANT * CLOUDY    27  23  86 NE3       30.28S
MUSCATINE *    CLOUDY    25  21  86 CALM      30.31R
QUAD CITIES    CLEAR     16  13  88 CALM      30.29F
$$

IAZ062-063-075>077-085>089-095>099-191200-
   SOUTHEAST IOWA

CITY           SKY/WX    TMP DP  RH WIND       PRES   REMARKS
BURLINGTON     CLOUDY    27  23  85 E5        30.28S WCI  22
FAIRFIELD *    CLOUDY    27  23  86 CALM      30.28S
FORT MADISON * CLOUDY    28  27  93 CALM      30.29S
KEOKUK *       CLOUDY    27  25  93 CALM      30.29R
OSKALOOSA *    CLOUDY    27  23  86 CALM      30.27S
CENTERVILLE *  CLOUDY    27  27 100 CALM      30.27S
OTTUMWA        CLOUDY    26  23  88 E3        30.27S
WASHINGTON *   CLOUDY    27  27 100 CALM      30.28S
$$

ABBREVIATIONS USED IN REMARKS
   TC - TEMPERATURES IN CELSIUS
  WCI - WIND CHILL INDEX
   HX - HEAT INDEX
  VSB - VISIBILITY
$$



USA.gov is the U.S. government's official web portal to all federal, state and local government web resources and services.